Bonilla Island, British Columbia

1:43 PM PST on February 23, 2017 (GMT -0800)
Bonilla Island

Weather History for CWWL - December, 2012

Change the Weather History Date:

Wednesday, December 12, 2012

  Actual Average Record
Temperature  
Mean Temperature 42 °F -  
Max Temperature 44 °F 43 °F - ()
Min Temperature 41 °F 36 °F - ()
Degree Days  
Heating Degree Days 22    
Moisture  
Dew Point 37 °F    
Average Humidity 79    
Maximum Humidity 88    
Minimum Humidity 69    
Precipitation  
Precipitation 0.08 in 0.30 in - ()
Sea Level Pressure  
Sea Level Pressure 29.83 in    
Wind  
Wind Speed 18 mph ()    
Max Wind Speed 33 mph    
Max Gust Speed 39 mph    
T = Trace of Precipitation, MM = Missing Value Source: Averaged Metar Reports

Daily Weather History Graph

Daily Weather History Graph

Search for Another Location

Airport or City:

Trip Planner

Search our weather history database for the weather conditions in past years. The results will help you decide how hot, cold, wet, or windy it might be!

Date:

Astronomy

Dec. 12, 2012 Rise Set
Actual Time 8:50 AM PST 4:22 PM PST
Civil Twilight 8:07 AM PST 5:05 PM PST
Nautical Twilight 7:22 AM PST 5:51 PM PST
Astronomical Twilight 6:39 AM PST 6:33 PM PST
Moon 7:59 AM PST (12/12) 4:09 PM PST (12/12)
Length of Visible Light 8h 58m
Length of Day
7h 32m
Waning Crescent, 0% of the Moon is Illuminated
Dec 12
Waning Crescent
Dec 13
New
Dec 19
First Quarter
Dec 28
Full
Jan 4
Last Quarter

Hourly Weather History & Observations

Time (PST) Temp. Windchill Dew Point Humidity Pressure Visibility Wind Dir Wind Speed Gust Speed Precip Events Conditions
12:00 AM 43.2 °F 34.5 °F 39.9 °F 88% 29.73 in - North 20.7 mph 34.5 mph N/A   Unknown
1:00 AM 43.5 °F 34.3 °F 39.9 °F 87% 29.75 in - North 24.2 mph - N/A   Unknown
2:00 AM 43.7 °F 33.7 °F 38.1 °F 81% 29.78 in - North 28.8 mph 34.5 mph N/A   Unknown
3:00 AM 43.5 °F 33.5 °F 37.0 °F 78% 29.79 in - North 28.8 mph 34.5 mph N/A   Unknown
4:00 AM 43 °F - 36 °F 69% 29.81 in - North 26.5 mph - -  
4:00 AM 43.2 °F 33.4 °F 36.3 °F 77% 29.81 in - North 26.5 mph - N/A   Unknown
5:00 AM 42.8 °F 33.5 °F 36.1 °F 77% 29.83 in - North 23.0 mph - N/A   Unknown
6:00 AM 42.8 °F 33.3 °F 36.0 °F 77% 29.85 in - North 24.2 mph - N/A   Unknown
7:00 AM 42.8 °F 33.5 °F 35.8 °F 76% 29.86 in - North 23.0 mph - N/A   Unknown
8:00 AM 42.4 °F 33.5 °F 35.6 °F 77% 29.87 in - North 20.7 mph - N/A   Unknown
9:00 AM 42.3 °F 33.8 °F 35.4 °F 77% 29.88 in - North 18.4 mph - N/A   Unknown
10:00 AM 43 °F - 36 °F 70% 29.90 in - North 15.0 mph - -  
10:00 AM 42.6 °F 35.2 °F 36.5 °F 79% 29.90 in - North 15.0 mph - N/A   Unknown
11:00 AM 42.8 °F 36.6 °F 35.2 °F 75% 29.91 in - North 11.5 mph - N/A   Unknown
1:00 PM 43.2 °F 36.6 °F 37.4 °F 80% 29.91 in - NNW 12.7 mph - N/A   Unknown
2:00 PM 43.7 °F 36.6 °F 37.9 °F 80% 29.90 in - NNW 15.0 mph - N/A   Unknown
3:00 PM 43.7 °F 37.7 °F 37.2 °F 78% 29.89 in - NNW 11.5 mph - N/A   Unknown
4:00 PM 44 °F - 37 °F 70% 29.88 in - NW 6.9 mph - -  
4:00 PM 43.7 °F 39.7 °F 37.4 °F 78% 29.88 in - NW 6.9 mph - N/A   Unknown
5:00 PM 43.5 °F 41.9 °F 36.7 °F 77% 29.88 in - West 3.5 mph - N/A   Unknown
6:00 PM 42.3 °F 39.4 °F 38.1 °F 85% 29.86 in - SSE 4.6 mph - N/A   Unknown
7:00 PM 43.9 °F 37.9 °F 37.9 °F 80% 29.84 in - South 11.5 mph - N/A   Unknown
8:00 PM 43.7 °F 35.2 °F 36.3 °F 75% 29.80 in - South 20.7 mph - N/A   Unknown
9:00 PM 43.2 °F 33.4 °F 38.7 °F 84% 29.78 in - South 26.5 mph - 0.02 in   Unknown
10:00 PM 43 °F - 38 °F 77% 29.74 in - South 33.4 mph - -  
10:00 PM 42.8 °F 31.8 °F 38.3 °F 84% 29.74 in - South 33.4 mph 39.1 mph 0.05 in   Unknown
11:00 PM 43.0 °F 32.2 °F 39.4 °F 87% 29.72 in - South 32.2 mph 38.0 mph 0.02 in   Unknown